Year,Month,Day,Hour,Minute,Value (Times are PST for barometer in hPa)
2011,11,22,00,00,988.42
2011,11,22,00,01,988.42
2011,11,22,00,02,988.38
2011,11,22,00,03,988.26
2011,11,22,00,04,988.39
2011,11,22,00,05,988.38
2011,11,22,00,06,988.24
2011,11,22,00,07,988.11
2011,11,22,00,08,988.11
2011,11,22,00,09,988.11
2011,11,22,00,10,988.07
2011,11,22,00,11,987.95
2011,11,22,00,12,987.95
2011,11,22,00,13,987.97
2011,11,22,00,14,987.88
2011,11,22,00,15,987.84
2011,11,22,00,16,987.81
2011,11,22,00,17,987.81
2011,11,22,00,18,987.84
2011,11,22,00,19,987.83
2011,11,22,00,20,987.64
2011,11,22,00,21,987.64
2011,11,22,00,22,987.66
2011,11,22,00,23,987.54
2011,11,22,00,24,987.61
2011,11,22,00,25,987.53
2011,11,22,00,26,987.44
2011,11,22,04,29,988.35
2011,11,22,04,30,988.39
2011,11,22,04,31,988.66
2011,11,22,04,32,988.69
2011,11,22,04,33,988.66
2011,11,22,04,34,988.69
2011,11,22,04,35,988.54
2011,11,22,04,36,988.35
2011,11,22,04,37,988.27
2011,11,22,04,38,988.15
2011,11,22,04,39,988.15
2011,11,22,04,40,988.12
2011,11,22,04,41,988.25
2011,11,22,04,42,988.25
2011,11,22,04,43,988.32
2011,11,22,04,44,988.39
2011,11,22,04,45,988.32
2011,11,22,04,46,988.41
2011,11,22,04,47,988.32
2011,11,22,04,48,988.25
2011,11,22,04,49,988.32
2011,11,22,04,50,988.35
2011,11,22,04,51,988.45
2011,11,22,04,52,988.52
2011,11,22,04,53,988.77
2011,11,22,04,54,988.93
2011,11,22,04,55,988.93
2011,11,22,04,56,989.00
2011,11,22,04,57,989.00
2011,11,22,04,58,989.12
2011,11,22,04,59,989.02
2011,11,22,05,00,988.79
2011,11,22,05,01,988.69
2011,11,22,05,02,988.73
2011,11,22,05,03,988.89
2011,11,22,05,04,988.93
2011,11,22,05,05,989.01
2011,11,22,05,06,989.14
2011,11,22,05,07,989.30
2011,11,22,05,08,989.50
2011,11,22,05,09,989.84
2011,11,22,05,10,989.90
2011,11,22,05,11,989.77
2011,11,22,05,12,989.70
2011,11,22,05,13,989.57
2011,11,22,05,14,989.50
2011,11,22,05,15,989.54
2011,11,22,05,16,989.57
2011,11,22,05,17,989.50
2011,11,22,05,18,989.44
2011,11,22,05,19,989.40
2011,11,22,05,20,989.36
2011,11,22,05,21,989.23
2011,11,22,05,22,989.10
2011,11,22,05,23,989.27
2011,11,22,05,24,989.11
2011,11,22,05,25,989.30
2011,11,22,05,26,989.38
2011,11,22,05,27,989.51
2011,11,22,05,28,989.60
2011,11,22,05,29,989.54
2011,11,22,05,30,989.47
2011,11,22,05,31,989.40
2011,11,22,05,32,989.13
2011,11,22,05,33,989.17
2011,11,22,05,34,989.38
2011,11,22,05,35,989.47
2011,11,22,05,36,989.50
2011,11,22,05,37,989.50
2011,11,22,05,38,989.40
2011,11,22,05,39,989.47
2011,11,22,05,40,989.51
2011,11,22,05,41,989.60
2011,11,22,05,42,989.67
2011,11,22,05,43,989.71
2011,11,22,05,44,989.81
2011,11,22,05,45,989.88
2011,11,22,05,46,989.94
2011,11,22,05,47,989.91
2011,11,22,05,48,989.88
2011,11,22,05,49,989.98
2011,11,22,05,50,990.08
2011,11,22,05,51,990.15
2011,11,22,05,52,990.18
2011,11,22,05,53,990.15
2011,11,22,05,54,990.25
2011,11,22,05,55,990.28
2011,11,22,05,56,990.32
2011,11,22,05,57,990.29
2011,11,22,05,58,990.45
2011,11,22,05,59,990.55
2011,11,22,06,00,990.62
2011,11,22,06,01,990.72
2011,11,22,06,02,990.87
2011,11,22,06,03,991.03
2011,11,22,06,04,990.99
2011,11,22,06,05,990.99
2011,11,22,06,06,990.96
2011,11,22,06,07,990.99
2011,11,22,06,08,991.06
2011,11,22,06,09,991.07
2011,11,22,06,10,991.16
2011,11,22,06,11,991.23
2011,11,22,06,12,991.23
2011,11,22,06,13,991.23
2011,11,22,06,14,991.20
2011,11,22,06,15,991.23
2011,11,22,06,16,991.30
2011,11,22,06,17,991.30
2011,11,22,06,18,991.33
2011,11,22,06,19,991.37
2011,11,22,06,20,991.33
2011,11,22,06,21,991.26
2011,11,22,06,22,991.27
2011,11,22,06,23,991.37
2011,11,22,06,24,991.47
2011,11,22,06,25,991.54
2011,11,22,06,26,991.64
2011,11,22,06,27,991.67
2011,11,22,06,28,991.70
2011,11,22,06,29,991.67
2011,11,22,06,30,991.67
2011,11,22,06,31,991.70
2011,11,22,06,32,991.70
2011,11,22,06,33,991.67
2011,11,22,06,34,991.81
2011,11,22,06,35,991.88
2011,11,22,06,36,991.98
2011,11,22,06,37,991.91
2011,11,22,06,38,991.87
2011,11,22,06,39,991.87
2011,11,22,06,40,991.84
2011,11,22,06,41,991.94
2011,11,22,06,42,991.98
2011,11,22,06,43,992.04
2011,11,22,06,44,992.11
2011,11,22,06,45,992.08
2011,11,22,06,46,992.18
2011,11,22,06,47,992.28
2011,11,22,06,48,992.38
2011,11,22,06,49,992.39
2011,11,22,06,50,992.52
2011,11,22,06,51,992.55
2011,11,22,06,52,992.62
2011,11,22,06,53,992.62
2011,11,22,06,54,992.65
2011,11,22,06,55,992.69
2011,11,22,06,56,992.69
2011,11,22,06,57,992.69
2011,11,22,06,58,992.69
2011,11,22,06,59,992.69
2011,11,22,07,00,992.45
2011,11,22,07,01,992.48
2011,11,22,07,02,992.52
2011,11,22,07,03,992.52
2011,11,22,07,04,992.58
2011,11,22,07,05,992.62
2011,11,22,07,06,992.69
2011,11,22,07,07,992.69
2011,11,22,07,08,992.75
2011,11,22,07,09,992.83
2011,11,22,07,10,992.96
2011,11,22,07,11,992.89
2011,11,22,07,12,992.89
2011,11,22,07,13,992.86
2011,11,22,07,14,992.92
2011,11,22,07,15,992.92
2011,11,22,07,16,992.96
2011,11,22,07,17,992.99
2011,11,22,07,18,992.97
2011,11,22,07,19,993.09
2011,11,22,07,20,993.03
2011,11,22,07,21,993.06
2011,11,22,07,22,993.06
2011,11,22,07,23,993.06
2011,11,22,07,24,993.09
2011,11,22,07,25,993.23
2011,11,22,07,26,993.16
2011,11,22,07,27,993.19
2011,11,22,07,28,993.23
2011,11,22,07,29,993.16
2011,11,22,07,30,993.23
2011,11,22,07,31,993.33
2011,11,22,07,32,993.33
2011,11,22,07,33,993.40
2011,11,22,07,34,993.40
2011,11,22,07,35,993.40
2011,11,22,07,36,993.40
2011,11,22,07,37,993.47
2011,11,22,07,38,993.47
2011,11,22,07,39,993.53
2011,11,22,07,40,993.53
2011,11,22,07,41,993.60
2011,11,22,07,42,993.74
2011,11,22,07,43,993.67
2011,11,22,07,44,993.80
2011,11,22,07,45,993.75
2011,11,22,07,46,993.87
2011,11,22,07,47,993.87
2011,11,22,07,48,994.04
2011,11,22,07,49,994.01
2011,11,22,07,50,994.14
2011,11,22,07,51,994.12
2011,11,22,07,52,994.31
2011,11,22,07,53,994.24
2011,11,22,07,54,994.35
2011,11,22,07,55,994.41
2011,11,22,07,56,994.35
2011,11,22,07,57,994.38
2011,11,22,07,58,994.38
2011,11,22,07,59,994.45
2011,11,22,08,00,994.45
2011,11,22,08,01,994.48
2011,11,22,08,02,994.41
2011,11,22,08,03,994.38
2011,11,22,08,04,994.41
2011,11,22,08,05,994.45
2011,11,22,08,06,994.53
2011,11,22,08,07,994.62
2011,11,22,08,08,994.52
2011,11,22,08,09,994.55
2011,11,22,08,10,994.48
2011,11,22,08,11,994.52
2011,11,22,08,12,994.68
2011,11,22,08,13,994.65
2011,11,22,08,14,994.62
2011,11,22,08,15,994.72
2011,11,22,08,16,994.75
2011,11,22,08,17,994.66
2011,11,22,08,18,994.65
2011,11,22,08,19,994.68
2011,11,22,08,20,994.62
2011,11,22,08,21,994.75
2011,11,22,08,22,994.75
2011,11,22,08,23,994.79
2011,11,22,08,24,994.72
2011,11,22,08,25,994.75
2011,11,22,08,26,994.85
2011,11,22,08,27,994.85
2011,11,22,08,28,994.85
2011,11,22,08,29,994.82
2011,11,22,08,30,994.79
2011,11,22,08,31,994.79
2011,11,22,08,32,994.79
2011,11,22,08,33,994.79
2011,11,22,08,34,994.82
2011,11,22,08,35,994.82
2011,11,22,08,36,994.89
2011,11,22,08,37,994.92
2011,11,22,08,38,994.89
2011,11,22,08,39,994.89
2011,11,22,08,40,994.96
2011,11,22,08,41,994.99
2011,11,22,08,42,995.06
2011,11,22,08,43,995.12
2011,11,22,08,44,995.06
2011,11,22,08,45,995.12
2011,11,22,08,46,995.23
2011,11,22,08,47,995.26
2011,11,22,08,48,995.29
2011,11,22,08,49,995.29
2011,11,22,08,50,995.36
2011,11,22,08,51,995.36
2011,11,22,08,52,995.40
2011,11,22,08,53,995.50
2011,11,22,08,54,995.50
2011,11,22,08,55,995.60
2011,11,22,08,56,995.63
2011,11,22,08,57,995.67
2011,11,22,08,58,995.73
2011,11,22,08,59,995.77
2011,11,22,09,00,995.90
2011,11,22,09,01,995.97
2011,11,22,09,02,995.97
2011,11,22,09,03,996.07
2011,11,22,09,04,996.07
2011,11,22,09,05,996.01
2011,11,22,09,06,996.07
2011,11,22,09,07,996.07
2011,11,22,09,08,996.07
2011,11,22,09,09,996.11
2011,11,22,09,10,996.11
2011,11,22,09,11,996.07
2011,11,22,09,12,996.11
2011,11,22,09,13,996.07
2011,11,22,09,14,996.04
2011,11,22,09,15,996.11
2011,11,22,09,16,996.11
2011,11,22,09,17,996.21
2011,11,22,09,18,996.21
2011,11,22,09,19,996.21
2011,11,22,09,20,996.38
2011,11,22,09,21,996.38
2011,11,22,09,22,996.47
2011,11,22,09,23,996.51
2011,11,22,09,24,996.55
2011,11,22,09,25,996.55
2011,11,22,09,26,996.51
2011,11,22,09,27,996.55
2011,11,22,09,28,996.58
2011,11,22,09,29,996.61
2011,11,22,09,30,996.68
2011,11,22,09,31,996.68
2011,11,22,09,32,996.72
2011,11,22,09,33,996.65
2011,11,22,09,34,996.72
2011,11,22,09,35,996.82
2011,11,22,09,36,996.82
2011,11,22,09,37,996.85
2011,11,22,09,38,996.75
2011,11,22,09,39,996.84
2011,11,22,09,40,996.89
2011,11,22,09,41,996.92
2011,11,22,09,42,996.95
2011,11,22,09,43,996.99
2011,11,22,09,44,996.99
2011,11,22,09,45,996.95
2011,11,22,09,46,996.99
2011,11,22,09,47,997.05
2011,11,22,09,48,997.12
2011,11,22,09,49,997.19
2011,11,22,09,50,997.16
2011,11,22,09,51,997.09
2011,11,22,09,52,997.16
2011,11,22,09,53,997.16
2011,11,22,09,54,997.16
2011,11,22,09,55,997.09
2011,11,22,09,56,997.05
2011,11,22,09,57,997.02
2011,11,22,09,58,997.05
2011,11,22,09,59,997.16
2011,11,22,10,00,997.05
2011,11,22,10,01,997.15
2011,11,22,10,02,997.12
2011,11,22,10,03,997.16
2011,11,22,10,04,997.22
2011,11,22,10,05,997.29
2011,11,22,10,06,997.22
2011,11,22,10,07,997.43
2011,11,22,10,08,997.50
2011,11,22,10,09,997.53
2011,11,22,10,10,997.66
2011,11,22,10,11,997.70
2011,11,22,10,12,997.77
2011,11,22,10,13,997.80
2011,11,22,10,14,997.66
2011,11,22,10,15,997.83
2011,11,22,10,16,997.90
2011,11,22,10,17,997.90
2011,11,22,10,18,997.97
2011,11,22,10,19,997.94
2011,11,22,10,20,997.97
2011,11,22,10,21,997.97
2011,11,22,10,22,998.00
2011,11,22,10,23,998.04
2011,11,22,10,24,998.10
2011,11,22,10,25,998.14
2011,11,22,10,26,998.17
2011,11,22,10,27,998.21
2011,11,22,10,28,998.31
2011,11,22,10,29,998.28
2011,11,22,10,30,998.38
2011,11,22,10,31,998.38
2011,11,22,10,32,998.44
2011,11,22,10,33,998.44
2011,11,22,10,34,998.48
2011,11,22,10,35,998.48
2011,11,22,10,36,998.51
2011,11,22,10,37,998.51
2011,11,22,10,38,998.48
2011,11,22,10,39,998.54
2011,11,22,10,40,998.48
2011,11,22,10,41,998.51
2011,11,22,10,42,998.54
2011,11,22,10,43,998.58
2011,11,22,10,44,998.58
2011,11,22,10,45,998.54
2011,11,22,10,46,998.58
2011,11,22,10,47,998.58
2011,11,22,10,48,998.58
2011,11,22,10,49,998.58
2011,11,22,10,50,998.58
2011,11,22,10,51,998.61
2011,11,22,10,52,998.65
2011,11,22,10,53,998.68
2011,11,22,10,54,998.68
2011,11,22,10,55,998.75
2011,11,22,10,56,998.68
2011,11,22,10,57,998.75
2011,11,22,10,58,998.75
2011,11,22,10,59,998.71
2011,11,22,11,00,998.75
2011,11,22,11,01,998.71
2011,11,22,11,02,998.82
2011,11,22,11,03,998.85
2011,11,22,11,04,998.85
2011,11,22,11,05,998.88
2011,11,22,11,06,998.85
2011,11,22,11,07,998.88
2011,11,22,11,08,998.85
2011,11,22,11,09,998.88
2011,11,22,11,10,998.88
2011,11,22,11,11,998.88
2011,11,22,11,12,998.95
2011,11,22,11,13,998.95
2011,11,22,11,14,998.95
2011,11,22,11,15,998.92
2011,11,22,11,16,998.92
2011,11,22,11,17,998.85
2011,11,22,11,18,998.92
2011,11,22,11,19,998.92
2011,11,22,11,20,998.99
2011,11,22,11,21,999.02
2011,11,22,11,22,998.99
2011,11,22,11,23,999.09
2011,11,22,11,24,998.99
2011,11,22,11,25,998.99
2011,11,22,11,26,999.02
2011,11,22,11,27,999.09
2011,11,22,11,28,999.09
2011,11,22,11,29,999.15
2011,11,22,11,30,999.22
2011,11,22,11,31,999.26
2011,11,22,11,32,999.32
2011,11,22,11,33,999.36
2011,11,22,11,34,999.29
2011,11,22,11,35,999.29
2011,11,22,11,36,999.29
2011,11,22,11,37,999.22
2011,11,22,11,38,999.22
2011,11,22,11,39,999.29
2011,11,22,11,40,999.26
2011,11,22,11,41,999.26
2011,11,22,11,42,999.29
2011,11,22,11,43,999.26
2011,11,22,11,44,999.26
2011,11,22,11,45,999.22
2011,11,22,11,46,999.19
2011,11,22,11,47,999.22
2011,11,22,11,48,999.19
2011,11,22,11,49,999.12
2011,11,22,11,50,999.12
2011,11,22,11,51,999.09
2011,11,22,11,52,999.09
2011,11,22,11,53,999.19
2011,11,22,11,54,999.19
2011,11,22,11,55,999.15
2011,11,22,11,56,999.22
2011,11,22,11,57,999.26
2011,11,22,11,58,999.22
2011,11,22,11,59,999.26
2011,11,22,12,00,999.22
2011,11,22,12,01,999.15
2011,11,22,12,02,999.19
2011,11,22,12,03,999.22
2011,11,22,12,04,999.26
2011,11,22,12,05,999.29
2011,11,22,12,06,999.26
2011,11,22,12,07,999.36
2011,11,22,12,08,999.32
2011,11,22,12,09,999.32
2011,11,22,12,10,999.36
2011,11,22,12,11,999.32
2011,11,22,12,12,999.43
2011,11,22,12,13,999.49
2011,11,22,12,14,999.49
2011,11,22,12,15,999.56
2011,11,22,12,16,999.53
2011,11,22,12,17,999.53
2011,11,22,12,18,999.53
2011,11,22,12,19,999.59
2011,11,22,12,20,999.56
2011,11,22,12,21,999.56
2011,11,22,12,22,999.49
2011,11,22,12,23,999.53
2011,11,22,12,24,999.49
2011,11,22,12,25,999.56
2011,11,22,12,26,999.56
2011,11,22,12,27,999.53
2011,11,22,12,28,999.56
2011,11,22,12,29,999.56
2011,11,22,12,30,999.49
2011,11,22,12,31,999.56
2011,11,22,12,32,999.59
2011,11,22,12,33,999.59
2011,11,22,12,34,999.53
2011,11,22,12,35,999.56
2011,11,22,12,36,999.59
2011,11,22,12,37,999.53
2011,11,22,12,38,999.62
2011,11,22,12,39,999.59
2011,11,22,12,40,999.70
2011,11,22,12,41,999.60
2011,11,22,12,42,999.56
2011,11,22,12,43,999.63
2011,11,22,12,44,999.56
2011,11,22,12,45,999.59
2011,11,22,12,46,999.56
2011,11,22,12,47,999.63
2011,11,22,12,48,999.66
2011,11,22,12,49,999.57
2011,11,22,12,50,999.59
2011,11,22,12,51,999.53
2011,11,22,12,52,999.53
2011,11,22,12,53,999.46
2011,11,22,12,54,999.39
2011,11,22,12,55,999.39
2011,11,22,12,56,999.36
2011,11,22,12,57,999.32
2011,11,22,12,58,999.32
2011,11,22,12,59,999.32
2011,11,22,13,00,999.29
2011,11,22,13,01,999.29
2011,11,22,13,02,999.22
2011,11,22,13,03,999.12
2011,11,22,13,04,999.22
2011,11,22,13,05,999.22
2011,11,22,13,06,999.19
2011,11,22,13,07,999.19
2011,11,22,13,08,999.15
2011,11,22,13,09,999.15
2011,11,22,13,10,999.12
2011,11,22,13,11,999.12
2011,11,22,13,12,999.15
2011,11,22,13,13,999.12
2011,11,22,13,14,999.15
2011,11,22,13,15,999.12
2011,11,22,13,16,999.22
2011,11,22,13,17,999.12
2011,11,22,13,18,999.15
2011,11,22,13,19,999.15
2011,11,22,13,20,999.15
2011,11,22,13,21,999.15
2011,11,22,13,22,999.15
2011,11,22,13,23,999.15
2011,11,22,13,24,999.15
2011,11,22,13,25,999.19
2011,11,22,13,26,999.26
2011,11,22,13,27,999.26
2011,11,22,13,28,999.29
2011,11,22,13,29,999.26
2011,11,22,13,30,999.19
2011,11,22,13,31,999.26
2011,11,22,13,32,999.22
2011,11,22,13,33,999.22
2011,11,22,13,34,999.19
2011,11,22,13,35,999.22
2011,11,22,13,36,999.22
2011,11,22,13,37,999.22
2011,11,22,13,38,999.22
2011,11,22,13,39,999.22
2011,11,22,13,40,999.19
2011,11,22,13,41,999.22
2011,11,22,13,42,999.22
2011,11,22,13,43,999.19
2011,11,22,13,44,999.15
2011,11,22,13,45,999.09
2011,11,22,13,46,999.15
2011,11,22,13,47,999.19
2011,11,22,13,48,999.19
2011,11,22,13,49,999.22
2011,11,22,13,50,999.22
2011,11,22,13,51,999.22
2011,11,22,13,52,999.22
2011,11,22,13,53,999.22
2011,11,22,13,54,999.15
2011,11,22,13,55,999.22
2011,11,22,13,56,999.19
2011,11,22,13,57,999.19
2011,11,22,13,58,999.19
2011,11,22,13,59,999.15
2011,11,22,14,00,999.12
2011,11,22,14,01,999.15
2011,11,22,14,02,999.19
2011,11,22,14,03,999.15
2011,11,22,14,04,999.15
2011,11,22,14,05,999.22
2011,11,22,14,06,999.15
2011,11,22,14,07,999.19
2011,11,22,14,08,999.19
2011,11,22,14,09,999.15
2011,11,22,14,10,999.15
2011,11,22,14,11,999.15
2011,11,22,14,12,999.22
2011,11,22,14,13,999.15
2011,11,22,14,14,999.12
2011,11,22,14,15,999.12
2011,11,22,14,16,999.09
2011,11,22,14,17,999.09
2011,11,22,14,18,999.09
2011,11,22,14,19,999.02
2011,11,22,14,20,998.95
2011,11,22,14,21,998.92
2011,11,22,14,22,998.85
2011,11,22,14,23,998.82
2011,11,22,14,24,998.82
2011,11,22,14,25,998.82
2011,11,22,14,26,998.85
2011,11,22,14,27,998.78
2011,11,22,14,28,998.75
2011,11,22,14,29,998.75
2011,11,22,14,30,998.68
2011,11,22,14,31,998.78
2011,11,22,14,32,998.68
2011,11,22,14,33,998.78
2011,11,22,14,34,998.78
2011,11,22,14,35,998.85
2011,11,22,14,36,998.82
2011,11,22,14,37,998.78
2011,11,22,14,38,998.78
2011,11,22,14,39,998.78
2011,11,22,14,40,998.65
2011,11,22,14,41,998.68
2011,11,22,14,42,998.75
2011,11,22,14,43,998.61
2011,11,22,14,44,998.51
2011,11,22,14,45,998.48
2011,11,22,14,46,998.41
2011,11,22,14,47,998.38
2011,11,22,14,48,998.34
2011,11,22,14,49,998.34
2011,11,22,14,50,998.27
2011,11,22,14,51,998.34
2011,11,22,14,52,998.27
2011,11,22,14,53,998.34
2011,11,22,14,54,998.34
2011,11,22,14,55,998.31
2011,11,22,14,56,998.38
2011,11,22,14,57,998.24
2011,11,22,14,58,998.34
2011,11,22,14,59,998.31
2011,11,22,15,00,998.31
2011,11,22,15,01,998.27
2011,11,22,15,02,998.27
2011,11,22,15,03,998.17
2011,11,22,15,04,998.24
2011,11,22,15,05,998.34
2011,11,22,15,06,998.24
2011,11,22,15,07,998.24
2011,11,22,15,08,998.24
2011,11,22,15,09,998.17
2011,11,22,15,10,998.24
2011,11,22,15,11,998.21
2011,11,22,15,12,998.17
2011,11,22,15,13,998.17
2011,11,22,15,14,998.14
2011,11,22,15,15,998.14
2011,11,22,15,16,998.10
2011,11,22,15,17,998.10
2011,11,22,15,18,998.17
2011,11,22,15,19,998.14
2011,11,22,15,20,998.14
2011,11,22,15,21,998.14
2011,11,22,15,22,998.17
2011,11,22,15,23,998.17
2011,11,22,15,24,998.37
2011,11,22,15,25,998.38
2011,11,22,15,26,998.24
2011,11,22,15,27,998.31
2011,11,22,15,28,998.31
2011,11,22,15,29,998.31
2011,11,22,15,30,998.47
2011,11,22,15,31,998.44
2011,11,22,15,32,998.44
2011,11,22,15,33,998.48
2011,11,22,15,34,998.51
2011,11,22,15,35,998.48
2011,11,22,15,36,998.58
2011,11,22,15,37,998.58
2011,11,22,15,38,998.58
2011,11,22,15,39,998.61
2011,11,22,15,40,998.61
2011,11,22,15,41,998.58
2011,11,22,15,42,998.54
2011,11,22,15,43,998.58
2011,11,22,15,44,998.58
2011,11,22,15,45,998.61
2011,11,22,15,46,998.61
2011,11,22,15,47,998.65
2011,11,22,15,48,998.58
2011,11,22,15,49,998.54
2011,11,22,15,50,998.48
2011,11,22,15,51,998.48
2011,11,22,15,52,998.41
2011,11,22,15,53,998.44
2011,11,22,15,54,998.44
2011,11,22,15,55,998.44
2011,11,22,15,56,998.38
2011,11,22,15,57,998.31
2011,11,22,15,58,998.27
2011,11,22,15,59,998.31
2011,11,22,16,00,998.31
2011,11,22,16,01,998.31
2011,11,22,16,02,998.24
2011,11,22,16,03,998.24
2011,11,22,16,04,998.17
2011,11,22,16,05,998.21
2011,11,22,16,06,998.17
2011,11,22,16,07,998.24
2011,11,22,16,08,998.21
2011,11,22,16,09,998.21
2011,11,22,16,10,998.27
2011,11,22,16,11,998.21
2011,11,22,16,12,998.17
2011,11,22,16,13,998.10
2011,11,22,16,14,998.14
2011,11,22,16,15,998.14
2011,11,22,16,16,998.04
2011,11,22,16,17,998.00
2011,11,22,16,18,997.97
2011,11,22,16,19,998.00
2011,11,22,16,20,998.00
2011,11,22,16,21,998.00
2011,11,22,16,22,998.00
2011,11,22,16,23,997.94
2011,11,22,16,24,997.97
2011,11,22,16,25,997.94
2011,11,22,16,26,997.90
2011,11,22,16,27,997.90
2011,11,22,16,28,997.83
2011,11,22,16,29,997.87
2011,11,22,16,30,997.83
2011,11,22,16,31,997.83
2011,11,22,16,32,997.87
2011,11,22,16,33,997.83
2011,11,22,16,34,997.90
2011,11,22,16,35,997.90
2011,11,22,16,36,997.87
2011,11,22,16,37,997.83
2011,11,22,16,38,997.80
2011,11,22,16,39,997.90
2011,11,22,16,40,997.87
2011,11,22,16,41,997.90
2011,11,22,16,42,997.87
2011,11,22,16,43,997.90
2011,11,22,16,44,997.87
2011,11,22,16,45,997.90
2011,11,22,16,46,997.87
2011,11,22,16,47,997.80
2011,11,22,16,48,997.77
2011,11,22,16,49,997.80
2011,11,22,16,50,997.73
2011,11,22,16,51,997.73
2011,11,22,16,52,997.80
2011,11,22,16,53,997.90
2011,11,22,16,54,997.97
2011,11,22,16,55,997.94
2011,11,22,16,56,997.80
2011,11,22,16,57,997.87
2011,11,22,16,58,997.80
2011,11,22,16,59,997.73
2011,11,22,17,00,997.70
2011,11,22,17,01,997.70
2011,11,22,17,02,997.63
2011,11,22,17,03,997.66
2011,11,22,17,04,997.66
2011,11,22,17,05,997.63
2011,11,22,17,06,997.66
2011,11,22,17,07,997.63
2011,11,22,17,08,997.72
2011,11,22,17,09,997.61
2011,11,22,17,10,997.60
2011,11,22,17,11,997.56
2011,11,22,17,12,997.50
2011,11,22,17,13,997.46
2011,11,22,17,14,997.43
2011,11,22,17,15,997.46
2011,11,22,17,16,997.43
2011,11,22,17,17,997.43
2011,11,22,17,18,997.36
2011,11,22,17,19,997.33
2011,11,22,17,20,997.33
2011,11,22,17,21,997.33
2011,11,22,17,22,997.29
2011,11,22,17,23,997.33
2011,11,22,17,24,997.29
2011,11,22,17,25,997.23
2011,11,22,17,26,997.29
2011,11,22,17,27,997.26
2011,11,22,17,28,997.19
2011,11,22,17,29,997.19
2011,11,22,17,30,997.13
2011,11,22,17,31,997.03
2011,11,22,17,32,997.05
2011,11,22,17,33,997.12
2011,11,22,17,34,997.05
2011,11,22,17,35,997.02
2011,11,22,17,36,996.99
2011,11,22,17,37,996.95
2011,11,22,17,38,996.99
2011,11,22,17,39,997.02
2011,11,22,17,40,997.02
2011,11,22,17,41,997.02
2011,11,22,17,42,996.95
2011,11,22,17,43,996.95
2011,11,22,17,44,996.89
2011,11,22,17,45,996.89
2011,11,22,17,46,996.85
2011,11,22,17,47,996.89
2011,11,22,17,48,996.85
2011,11,22,17,49,996.78
2011,11,22,17,50,996.75
2011,11,22,17,51,996.78
2011,11,22,17,52,996.78
2011,11,22,17,53,996.75
2011,11,22,17,54,996.68
2011,11,22,17,55,996.72
2011,11,22,17,56,996.72
2011,11,22,17,57,996.75
2011,11,22,17,58,996.72
2011,11,22,17,59,996.75
2011,11,22,18,00,996.78
2011,11,22,18,01,996.72
2011,11,22,18,02,996.72
2011,11,22,18,03,996.72
2011,11,22,18,04,996.72
2011,11,22,18,05,996.84
2011,11,22,18,06,996.85
2011,11,22,18,07,996.89
2011,11,22,18,08,996.89
2011,11,22,18,09,996.89
2011,11,22,18,10,996.83
2011,11,22,18,11,996.85
2011,11,22,18,12,996.85
2011,11,22,18,13,996.73
2011,11,22,18,14,996.82
2011,11,22,18,15,996.78
2011,11,22,18,16,996.68
2011,11,22,18,17,996.65
2011,11,22,18,18,996.65
2011,11,22,18,19,996.72
2011,11,22,18,20,996.68
2011,11,22,18,21,996.59
2011,11,22,18,22,996.61
2011,11,22,18,23,996.65
2011,11,22,18,24,996.72
2011,11,22,18,25,996.61
2011,11,22,18,26,996.74
2011,11,22,18,27,996.72
2011,11,22,18,28,996.72
2011,11,22,18,29,996.68
2011,11,22,18,30,996.68
2011,11,22,18,31,996.72
2011,11,22,18,32,996.72
2011,11,22,18,33,996.75
2011,11,22,18,34,996.82
2011,11,22,18,35,996.75
2011,11,22,18,36,996.78
2011,11,22,18,37,996.75
2011,11,22,18,38,996.68
2011,11,22,18,39,996.68
2011,11,22,18,40,996.72
2011,11,22,18,41,996.61
2011,11,22,18,42,996.55
2011,11,22,18,43,996.51
2011,11,22,18,44,996.51
2011,11,22,18,45,996.51
2011,11,22,18,46,996.48
2011,11,22,18,47,996.45
2011,11,22,18,48,996.41
2011,11,22,18,49,996.41
2011,11,22,18,50,996.41
2011,11,22,18,51,996.48
2011,11,22,18,52,996.41
2011,11,22,18,53,996.34
2011,11,22,18,54,996.31
2011,11,22,18,55,996.28
2011,11,22,18,56,996.24
2011,11,22,18,57,996.28
2011,11,22,18,58,996.24
2011,11,22,18,59,996.31
2011,11,22,19,00,996.28
2011,11,22,19,01,996.28
2011,11,22,19,02,996.28
2011,11,22,19,03,996.31
2011,11,22,19,04,996.41
2011,11,22,19,05,996.41
2011,11,22,19,06,996.41
2011,11,22,19,07,996.41
2011,11,22,19,08,996.38
2011,11,22,19,09,996.41
2011,11,22,19,10,996.45
2011,11,22,19,11,996.38
2011,11,22,19,12,996.31
2011,11,22,19,13,996.34
2011,11,22,19,14,996.28
2011,11,22,19,15,996.28
2011,11,22,19,16,996.37
2011,11,22,19,17,996.31
2011,11,22,19,18,996.31
2011,11,22,19,19,996.34
2011,11,22,19,20,996.31
2011,11,22,19,21,996.31
2011,11,22,19,22,996.31
2011,11,22,19,23,996.28
2011,11,22,19,24,996.44
2011,11,22,19,25,996.39
2011,11,22,19,26,996.31
2011,11,22,19,27,996.38
2011,11,22,19,28,996.28
2011,11,22,19,29,996.34
2011,11,22,19,30,996.22
2011,11,22,19,31,996.15
2011,11,22,19,32,996.21
2011,11,22,19,33,996.24
2011,11,22,19,34,996.11
2011,11,22,19,35,996.17
2011,11,22,19,36,996.14
2011,11,22,19,37,996.17
2011,11,22,19,38,996.14
2011,11,22,19,39,996.14
2011,11,22,19,40,996.14
2011,11,22,19,41,996.14
2011,11,22,19,42,996.14
2011,11,22,19,43,996.14
2011,11,22,19,44,996.07
2011,11,22,19,45,996.01
2011,11,22,19,46,996.06
2011,11,22,19,47,996.02
2011,11,22,19,48,996.04
2011,11,22,19,49,996.01
2011,11,22,19,50,995.97
2011,11,22,19,51,995.97
2011,11,22,19,52,995.97
2011,11,22,19,53,996.01
2011,11,22,19,54,995.95
2011,11,22,19,55,995.94
2011,11,22,19,56,996.03
2011,11,22,19,57,995.97
2011,11,22,19,58,995.97
2011,11,22,19,59,995.94
2011,11,22,20,00,995.97
2011,11,22,20,01,996.01
2011,11,22,20,02,995.97
2011,11,22,20,03,995.97
2011,11,22,20,04,995.90
2011,11,22,20,05,995.94
2011,11,22,20,06,995.90
2011,11,22,20,07,995.87
2011,11,22,20,08,995.84
2011,11,22,20,09,995.84
2011,11,22,20,10,995.84
2011,11,22,20,11,995.84
2011,11,22,20,12,995.80
2011,11,22,20,13,995.80
2011,11,22,20,14,995.80
2011,11,22,20,15,995.77
2011,11,22,20,16,995.73
2011,11,22,20,17,995.77
2011,11,22,20,18,995.70
2011,11,22,20,19,995.67
2011,11,22,20,20,995.70
2011,11,22,20,21,995.67
2011,11,22,20,22,995.67
2011,11,22,20,23,995.67
2011,11,22,20,24,995.63
2011,11,22,20,25,995.60
2011,11,22,20,26,995.67
2011,11,22,20,27,995.57
2011,11,22,20,28,995.56
2011,11,22,20,29,995.53
2011,11,22,20,30,995.56
2011,11,22,20,31,995.56
2011,11,22,20,32,995.63
2011,11,22,20,33,995.57
2011,11,22,20,34,995.47
2011,11,22,20,35,995.50
2011,11,22,20,36,995.50
2011,11,22,20,37,995.53
2011,11,22,20,38,995.43